Zurück zum Katalog

STARLINK-35187

AktivKommunikationSSO
NORAD 65521·PAYLOAD·🇺🇸 United States

Gestartet Sep 6, 2025 von Cape Canaveral Space Force Station

Loading…

Nächste Überflüge (nächste 24 Stunden)

TLE

AktuellSource: CelesTrak SupGP

Epoche: Sep 14, 2026, 15:45 UTC

1 65521C 25200B   26257.65673611  .00007339  00000+0  22782-3 0  2577
2 65521  97.2846 324.0956 0001133  95.7823 264.0254 15.33436358    13

Verfolge STARLINK-35187 in Echtzeit mit AllMySat

Download on the App Store